3km 2014

Classement généralNomPrénomDossardCatégorieTempsClassement catégorie
1BEN MANSOURCelestin2498MIM00:08:481
2BURLOTFrancois2453MIM00:09:022
3MINONQUENTIN2462MIM00:09:043
4BALANCAMaxime2499MIM00:09:044
5MOTTAISgoulven2466MIM00:09:175
6LOZAHICKilian2454MIM00:10:156
7?Dossard#24272427SEM00:10:171
8VIALATFLORIAN2459MIM00:10:207
9JULOUNICOLAS2443BEM00:10:201
10TOUVERONAlix2464MIM00:10:238
11GAILLARDMAEL2433BEM00:10:232
12DE LIGNIERESArbogast2431MIM00:10:329
13DEBAVELAEREMathieu2448BEM00:10:333
14ROZAYMANUEL2456MIM00:10:3310
15DEBAVELAEREAugustin2449MIM00:10:4111
16MIERKEGABRIEL2440MIM00:10:4412
17LE ROLLANDMALO2434MIM00:10:5313
18RAULTJUSTINE2441MIF00:10:581
19DE LIGNIERESPaul2432BEM00:10:594
20VETEAULuan2436MIF00:11:092
21ROZAYLeo2455BEM00:11:095
22BUCHERTMarion2497BEF00:11:291
23LE COZIC-SIMONYUNA2435BEF00:11:432
24BASSETOPHELIE2438BEF00:11:503
25ALLAINmarine2458BEF00:12:074
26DE FONTAINEJos?phine2447BEF00:12:125
27BENHARISalma2465BEF00:12:306
28?Dossard#24632463SEM00:12:372
29JULOUJONATHAN2444MIM00:12:4214
30THOMASENORA2439BEF00:12:467
31JOMIERMaiwenn2446BEF00:12:508
32LE ROLLANDYOUNA2457BEF00:12:509
33MAILLARDTyphaine2452BEF00:13:1110
34GENDRELudovic2442MIM00:13:5215
35MENGUYBertille2461MIF00:14:333
36POTTIERCl?mence2450BEF00:15:2311
37BARON-JANVRINL?a2451BEF00:15:2312

Les commentaires sont clos.